DAL1816 MMPR-KATL

Flight info

Callsign DAL1816
Flight time N/A
Altitude 35000
Route XUDED UT148 MAVED DCT OMIXA DCT NLD DCT LRD DCT PSX DCT VUH DCT LCH DCT MCB DCT FRDDO
Aircraft B752/M-SDE2E3FGHIJ3J4J7RWXY/LB1

Departure

Time 2026-04-21 05:05
Airport Puerto Vallarta International Airport (MMPR)

Arrival

Time N/A
Airport Hartsfield Jackson Atlanta International Airport (KATL)
Time Latitude Longitude Altitude Speed Heading
2026-04-21 04:33 20.68011 -105.24761 45 ft 0 kts 91°
2026-04-21 04:52 20.68011 -105.24763 45 ft 0 kts 91°
2026-04-21 04:53 20.68011 -105.24771 45 ft 1 kts 91°
2026-04-21 04:53 20.68011 -105.24782 45 ft 2 kts 77°
2026-04-21 04:53 20.68004 -105.24796 45 ft 2 kts 37°
2026-04-21 04:54 20.68001 -105.24797 45 ft 0 kts 32°
2026-04-21 05:00 20.68014 -105.24789 45 ft 3 kts 32°
2026-04-21 05:00 20.68133 -105.24731 45 ft 18 kts 28°
2026-04-21 05:01 20.68246 -105.24695 46 ft 15 kts 14°
2026-04-21 05:01 20.68348 -105.24666 46 ft 14 kts 17°
2026-04-21 05:01 20.68435 -105.24638 47 ft 11 kts 21°
2026-04-21 05:01 20.68497 -105.24603 47 ft 8 kts 38°
2026-04-21 05:02 20.68535 -105.24565 47 ft 6 kts 44°
2026-04-21 05:02 20.68563 -105.24530 48 ft 8 kts 53°
2026-04-21 05:02 20.68626 -105.24452 48 ft 16 kts 47°
2026-04-21 05:02 20.68702 -105.24365 49 ft 15 kts 47°
2026-04-21 05:03 20.68771 -105.24285 49 ft 13 kts 46°
2026-04-21 05:03 20.68847 -105.24268 50 ft 11 kts 331°
2026-04-21 05:03 20.68868 -105.24284 50 ft 0 kts 318°
2026-04-21 05:03 20.68875 -105.24291 50 ft 3 kts 318°
2026-04-21 05:04 20.68920 -105.24349 49 ft 15 kts 279°
2026-04-21 05:04 20.68803 -105.24500 48 ft 57 kts 230°
2026-04-21 05:04 20.68331 -105.25042 44 ft 136 kts 229°
2026-04-21 05:04 20.67550 -105.25951 156 ft 183 kts 228°
2026-04-21 05:05 20.66678 -105.26993 917 ft 192 kts 229°
2026-04-21 05:05 20.65823 -105.27994 1769 ft 189 kts 224°
2026-04-21 05:05 20.64817 -105.29041 2179 ft 209 kts 233°
2026-04-21 05:05 20.64278 -105.30496 2691 ft 222 kts 271°
2026-04-21 05:06 20.64684 -105.32049 3472 ft 220 kts 308°
2026-04-21 05:06 20.65879 -105.33058 4163 ft 223 kts 343°
2026-04-21 05:06 20.67379 -105.33411 4897 ft 226 kts 349°
2026-04-21 05:06 20.68916 -105.33797 5648 ft 229 kts 346°
2026-04-21 05:07 20.70479 -105.34237 6345 ft 234 kts 345°
2026-04-21 05:07 20.72034 -105.34694 7119 ft 234 kts 344°
2026-04-21 05:07 20.75038 -105.35610 8477 ft 239 kts 342°
2026-04-21 05:07 20.78136 -105.36575 9809 ft 244 kts 342°
2026-04-21 05:08 20.81386 -105.37594 11148 ft 249 kts 342°
2026-04-21 05:08 20.84653 -105.38622 12440 ft 253 kts 342°
2026-04-21 05:08 20.87976 -105.39578 13576 ft 264 kts 353°
2026-04-21 05:08 20.91793 -105.39831 14142 ft 302 kts 355°
2026-04-21 05:09 20.96195 -105.40102 14645 ft 339 kts 355°
2026-04-21 05:09 21.01063 -105.40395 14991 ft 377 kts 355°
2026-04-21 05:09 21.06360 -105.39804 15431 ft 407 kts 18°
2026-04-21 05:09 21.11484 -105.37672 16441 ft 414 kts 20°
2026-04-21 05:10 21.16315 -105.35657 17333 ft 419 kts 19°
2026-04-21 05:10 21.21280 -105.33582 18225 ft 424 kts 19°
2026-04-21 05:10 21.26676 -105.31325 19161 ft 430 kts 19°
2026-04-21 05:10 21.32022 -105.29086 20042 ft 435 kts 19°
2026-04-21 05:11 21.37338 -105.26858 20865 ft 440 kts 18°
2026-04-21 05:11 21.42596 -105.24653 21675 ft 445 kts 18°
2026-04-21 05:11 21.47971 -105.22397 22491 ft 448 kts 18°
2026-04-21 05:11 21.53399 -105.20117 23144 ft 455 kts 18°
2026-04-21 05:12 21.58912 -105.17799 23844 ft 461 kts 18°
2026-04-21 05:12 21.64394 -105.15493 24478 ft 467 kts 18°
2026-04-21 05:12 21.69984 -105.13139 25193 ft 471 kts 18°
2026-04-21 05:12 21.75735 -105.10715 25836 ft 476 kts 18°
2026-04-21 05:13 21.81429 -105.08314 26472 ft 481 kts 18°
2026-04-21 05:13 21.87177 -105.05828 27060 ft 488 kts 21°
2026-04-21 05:13 21.92965 -105.03023 27631 ft 493 kts 21°
2026-04-21 05:13 21.98764 -105.00223 28216 ft 498 kts 20°
2026-04-21 05:14 22.04661 -104.97376 28830 ft 502 kts 20°
2026-04-21 05:14 22.10191 -104.94705 29508 ft 502 kts 21°
2026-04-21 05:14 22.15393 -104.92189 30254 ft 499 kts 20°
2026-04-21 05:14 22.20296 -104.89815 31011 ft 495 kts 20°
2026-04-21 05:15 22.25894 -104.87103 31785 ft 492 kts 20°
2026-04-21 05:15 22.31451 -104.84409 32410 ft 492 kts 20°
2026-04-21 05:15 22.37096 -104.81670 33221 ft 487 kts 20°
2026-04-21 05:15 22.42822 -104.78890 33865 ft 486 kts 20°
2026-04-21 05:16 22.48436 -104.76162 34455 ft 486 kts 20°
2026-04-21 05:16 22.54053 -104.73429 35066 ft 485 kts 20°
2026-04-21 05:16 22.59531 -104.70520 35373 ft 490 kts 28°
2026-04-21 05:16 22.64044 -104.66563 35377 ft 495 kts 40°
2026-04-21 05:17 22.72671 -104.57530 35419 ft 496 kts 40°
2026-04-21 05:17 22.81259 -104.48469 35479 ft 497 kts 40°
2026-04-21 05:18 22.90078 -104.39134 35488 ft 498 kts 40°
2026-04-21 05:18 22.97904 -104.30834 35511 ft 500 kts 41°
2026-04-21 05:19 23.04515 -104.23811 35544 ft 500 kts 40°
2026-04-21 05:19 23.09497 -104.18513 35513 ft 501 kts 41°
2026-04-21 05:20 24.00972 -103.32076 35385 ft 506 kts 39°
2026-04-21 05:20 24.05457 -103.25874 35381 ft 509 kts 59°
2026-04-21 05:21 24.08026 -103.18615 35390 ft 516 kts 73°
2026-04-21 05:21 24.10781 -103.11388 35392 ft 509 kts 55°
2026-04-21 05:22 25.04683 -102.16945 35564 ft 502 kts 36°
2026-04-21 05:22 25.07151 -102.14033 35220 ft 508 kts 46°
2026-04-21 05:22 25.08491 -102.12303 35287 ft 503 kts 45°
2026-04-21 05:23 25.12979 -102.05692 35284 ft 510 kts 50°
2026-04-21 05:23 25.17168 -101.99342 35300 ft 509 kts 50°
2026-04-21 05:24 25.21338 -101.93027 35312 ft 510 kts 50°
2026-04-21 05:24 25.25604 -101.86692 35320 ft 509 kts 47°
2026-04-21 05:25 25.30961 -101.79768 35327 ft 509 kts 47°
2026-04-21 05:25 25.37859 -101.70389 35314 ft 512 kts 47°
2026-04-21 05:26 25.42230 -101.64447 35306 ft 510 kts 46°
2026-04-21 05:26 25.46741 -101.58347 35299 ft 512 kts 46°
2026-04-21 05:27 25.51265 -101.52232 35298 ft 511 kts 46°
2026-04-21 05:27 25.56072 -101.46429 35290 ft 507 kts 38°
2026-04-21 05:28 25.61281 -101.41151 35301 ft 507 kts 37°
2026-04-21 05:28 25.66486 -101.35880 35284 ft 507 kts 37°
2026-04-21 05:29 25.71724 -101.30578 35260 ft 507 kts 38°
2026-04-21 05:29 25.76966 -101.25294 35252 ft 509 kts 38°
2026-04-21 05:30 25.82188 -101.20007 35236 ft 509 kts 38°
2026-04-21 05:30 25.87458 -101.14681 35228 ft 509 kts 38°
2026-04-21 05:31 25.92694 -101.09382 35225 ft 509 kts 38°
2026-04-21 05:31 26.95842 -100.19452 35188 ft 512 kts 36°
2026-04-21 05:32 27.01545 -100.12520 35180 ft 519 kts 48°
2026-04-21 05:32 27.06110 -100.05936 35176 ft 519 kts 48°
2026-04-21 05:33 27.10582 -99.99494 35178 ft 520 kts 48°
2026-04-21 05:33 27.15016 -99.93105 35178 ft 519 kts 48°
2026-04-21 05:34 27.19457 -99.86705 35183 ft 520 kts 48°
2026-04-21 05:34 27.23873 -99.80298 35180 ft 520 kts 49°
2026-04-21 05:35 27.28575 -99.74091 35179 ft 515 kts 41°
2026-04-21 05:35 27.33663 -99.68359 35184 ft 515 kts 39°
2026-04-21 05:36 27.38852 -99.62801 35189 ft 513 kts 38°
2026-04-21 05:36 27.43508 -99.56594 35201 ft 523 kts 54°
2026-04-21 05:37 27.46491 -99.49036 35197 ft 530 kts 70°
2026-04-21 05:37 27.48933 -99.41208 35198 ft 527 kts 62°
2026-04-21 05:38 28.08749 -98.21358 35310 ft 526 kts 59°
2026-04-21 05:38 28.10439 -98.17336 35154 ft 534 kts 63°
2026-04-21 05:38 28.11551 -98.14558 35181 ft 533 kts 63°
2026-04-21 05:39 28.14500 -98.05836 35316 ft 531 kts 52°
2026-04-21 05:40 28.23447 -97.86596 35192 ft 530 kts 65°
2026-04-21 05:40 28.24750 -97.82745 35191 ft 533 kts 68°
2026-04-21 05:40 28.27013 -97.74783 35188 ft 533 kts 68°
2026-04-21 05:41 28.29575 -97.66860 35189 ft 533 kts 67°
2026-04-21 05:41 28.32135 -97.58920 35188 ft 532 kts 66°
2026-04-21 05:42 28.67028 -96.66052 35200 ft 528 kts 66°
2026-04-21 05:42 28.69247 -96.58371 35206 ft 532 kts 71°
2026-04-21 05:43 28.71289 -96.50223 35205 ft 531 kts 71°
2026-04-21 05:43 28.73327 -96.42106 35210 ft 532 kts 71°
2026-04-21 05:44 28.75361 -96.34049 35208 ft 531 kts 71°
2026-04-21 05:44 28.78081 -96.26269 35204 ft 528 kts 63°
2026-04-21 05:45 28.80960 -96.18557 35207 ft 529 kts 64°
2026-04-21 05:45 29.25875 -94.92056 35314 ft 526 kts 61°
2026-04-21 05:46 29.28909 -94.84148 35237 ft 521 kts 59°
2026-04-21 05:46 29.32350 -94.76968 35220 ft 525 kts 58°